SERVIS 2 DEB, 43394

Orbit data source: Space-Track

SERVIS 2 DEB, 43394 is space debris in LEO originally from a launch on Wed, 02 Jun 2010 UTC launched from the Plesetsk Missile And Space Complex (PKMTR). Debris objects in space refer to the collection of defunct objects orbiting the Earth. Examples of debris include non-operational satellites, rocket bodies, and fragments generated from explosions, collisions, or faulty payload assembly.

Loading next visibility...
SERVIS 2 DEB details
Identifier
43394, 2010-023D
Orbit
LEO
Last TLE update3 days ago
Origin
Flag of CISJ-spacesystems (CIS)
ManufacturerMELCO
MissionSpacecraft
Bus & MotorUnknown
MassUnknown
Launch date (UTC)
2010-06-02 (15 years ago)
Launch vehicleUnknown
Launch site
Plesetsk Missile And Space Complex (PKMTR)
Object type
Payload
Rocket body
Debris
Shape & HBRUnknown
Radar Cross SectionSmall (<0.1 m²)

Expand to show TLE details & history

TLE from 3 days ago
0 SERVIS 2 DEB
1 43394U 10023D   24337.20625045  .00016023  00000-0  24832-1 0  9994
2 43394 100.5096 319.9290 0032261 278.7008  81.0470 13.50772129 21500
Epoch: 2024-12-02T04:57Z
Definitive object data (Epoch: 2024-12-02T04:57:00.038Z)
Latitude-0.00006°
Longitude174.14542°
Altitude1,068.513 km
Speed7.32 km/s
True Right ascension21h 19m 42s
True Declination0° 00' 00"
Sunlit
Object was in daylight at TLE epoch
Visualization TLE readout
Latitude58.42833°
Longitude14.77512°
Altitude1,099.896 km
Speed7.298 km/s
Apparent Right ascension12h 53m 27s
Apparent Declination16° 27' 07"
Sunlit
Object is in daylight
Visualization observer readout
Local Sidereal Time02:36:19
Azimuth28.338° NE
Elevation-28.75°
Doppler factor1
Orbital elements
Apogee altitude1,090.781 km
Perigee altitude1,042.745 km
Semi-major axis7,444.9 km
Eccentricity0.0032261
Inclination100.5096°
RAAN319.929°
Arg. of periapsis278.7008°
True anomaly81.41241°
Mean anomaly81.047°
Eccentric anomaly81.22968°
Mean motion3.37874 °/min
BSTAR0.024832
Orbital period106.55 mins
Loading maneuver chart data...
Loading historical data...
Loading historical data...
Loading historical data...
Loading historical data...
Loading historical data...
Loading historical data...
Loading historical data...
Other satellites on launch #23 in the year 2010 (2010-06-02 UTC)

SERVIS 2 DEB Visibility forecast

Observer location: undefined°, undefined

Span
Click to sort rows by Start time (UTC) header in descending order
Start Az.
Max El. time (UTC)
Max El. Az.
Max El.
End time (UTC)
End Az.
12 mins2024-12-05 11:45:53.239Z23.137° NE2024-12-05 11:51:53.239Z124.019° SE42.201°2024-12-05 11:57:53.239Z185.839° SSW
7 mins2024-12-05 13:32:53.239Z335.43° NNW2024-12-05 13:35:53.239Z301.174° NW21.153°2024-12-05 13:39:53.239Z258.781° W
9 mins2024-12-05 21:58:53.239Z117.502° SE2024-12-05 22:02:53.239Z64.851° ENE30.411°2024-12-05 22:07:53.239Z5.052° NNE
11 mins2024-12-05 23:42:53.239Z197.975° SSW2024-12-05 23:47:53.239Z262.972° W32.659°2024-12-05 23:53:53.239Z328.877° NNW
|